Caldwell, TX

5:37 PM CDT on September 28, 2016 (GMT -0500)
Caldwell

Weather History for KRWV - February, 2014

Change the Weather History Date:

Tuesday, February 25, 2014

  Actual Average (KCLL) Record (KCLL)
Temperature  
Mean Temperature 58 °F 57 °F  
Max Temperature 68 °F 67 °F 89 °F (1918)
Min Temperature 48 °F 47 °F 22 °F (1974)
Degree Days  
Heating Degree Days 7 9  
Month to date heating degree days 282  
Since 1 July heating degree days 1360  
Cooling Degree Days 0 1  
Month to date cooling degree days 22  
Year to date cooling degree days 33  
Growing Degree Days 8 (Base 50)    
Moisture  
Dew Point 58 °F    
Average Humidity 99    
Maximum Humidity 100    
Minimum Humidity 88    
Precipitation  
Precipitation 0.00 in 0.09 in 2.76 in (1924)
Month to date precipitation 2.56  
Year to date precipitation 5.80  
Sea Level Pressure  
Sea Level Pressure 30.03 in    
Wind  
Wind Speed 6 mph (ENE)    
Max Wind Speed 14 mph    
Max Gust Speed 17 mph    
Visibility 3 miles    
Events Fog    
T = Trace of Precipitation, MM = Missing Value Source: NWS Daily Summary

Daily Weather History Graph

Daily Weather History Graph

Search for Another Location

Airport or City:

Trip Planner

Search our weather history database for the weather conditions in past years. The results will help you decide how hot, cold, wet, or windy it might be!

Date:

Astronomy

Feb. 25, 2014 Rise Set
Actual Time 6:57 AM CST 6:22 PM CST
Civil Twilight 6:33 AM CST 6:46 PM CST
Nautical Twilight 6:05 AM CST 7:14 PM CST
Astronomical Twilight 5:37 AM CST 7:42 PM CST
Moon 3:41 AM CST (2/25) 2:40 PM CST (2/25)
Length of Visible Light 12h 13m
Length of Day
11h 25m
Waning Crescent, 18% of the Moon is Illuminated
Feb 25
Waning Crescent
Mar 1
New
Mar 8
First Quarter
Mar 16
Full
Mar 23
Last Quarter

Hourly Weather History & Observations

Time (CST) Temp. Dew Point Humidity Pressure Visibility Wind Dir Wind Speed Gust Speed Precip Events Conditions
12:15 AM 62.6 °F 62.6 °F 100% 30.05 in 1.8 mi South 6.9 mph - N/A   Overcast
12:35 AM 62.6 °F 62.6 °F 100% 30.05 in 1.2 mi South 4.6 mph - N/A   Overcast
12:55 AM 62.6 °F 62.6 °F 100% 30.05 in 1.2 mi South 4.6 mph - N/A   Overcast
1:15 AM 62.6 °F 62.6 °F 100% 30.04 in 0.8 mi South 5.8 mph - N/A   Overcast
1:30 AM 62.6 °F 62.6 °F 100% 30.04 in 0.8 mi South 5.8 mph - N/A   Overcast
1:55 AM 62.6 °F 62.6 °F 100% 30.04 in 1.0 mi SSE 4.6 mph - N/A   Overcast
2:10 AM 62.6 °F 62.6 °F 100% 30.04 in 1.2 mi SSE 5.8 mph - N/A   Overcast
3:55 AM 62.6 °F 62.6 °F 100% 30.02 in 0.2 mi SSE 5.8 mph - N/A Fog Fog
4:15 AM 62.6 °F 62.6 °F 100% 30.02 in 0.8 mi South 6.9 mph - N/A   Overcast
4:30 AM 62.6 °F 62.6 °F 100% 30.02 in 0.8 mi South 6.9 mph - N/A   Overcast
4:55 AM 62.6 °F 62.6 °F 100% 30.02 in 0.2 mi South 5.8 mph - N/A Fog Fog
5:15 AM 62.6 °F 62.6 °F 100% 30.03 in 0.5 mi South 4.6 mph - N/A Fog Fog
5:35 AM 62.6 °F 62.6 °F 100% 30.03 in 0.2 mi South 6.9 mph - N/A Fog Fog
5:55 AM 62.6 °F 62.6 °F 100% 30.03 in 0.2 mi Calm Calm - N/A Fog Fog
6:15 AM 62.6 °F 62.6 °F 100% 30.04 in 0.2 mi Calm Calm - N/A Fog Fog
6:35 AM 62.6 °F 62.6 °F 100% 30.04 in 0.2 mi SSE 3.5 mph - N/A Fog Fog
6:55 AM 62.6 °F 62.6 °F 100% 30.05 in 0.5 mi SSE 5.8 mph - N/A Fog Fog
7:15 AM 62.6 °F 62.6 °F 100% 30.06 in 1.0 mi SSE 4.6 mph - N/A   Overcast
7:35 AM 62.6 °F 62.6 °F 100% 30.06 in 2.5 mi SSE 4.6 mph - N/A   Overcast
7:55 AM 62.6 °F 62.6 °F 100% 30.06 in 1.8 mi South 6.9 mph - N/A   Overcast
8:15 AM 62.6 °F 62.6 °F 100% 30.07 in 0.8 mi South 5.8 mph - N/A   Overcast
8:35 AM 62.6 °F 62.6 °F 100% 30.07 in 1.0 mi South 6.9 mph - N/A   Overcast
8:55 AM 62.6 °F 62.6 °F 100% 30.08 in 1.5 mi South 6.9 mph - N/A   Overcast
9:10 AM 62.6 °F 62.6 °F 100% 30.08 in 3.0 mi South 5.8 mph - N/A   Overcast
9:35 AM 62.6 °F 62.6 °F 100% 30.09 in 5.0 mi Calm Calm - N/A   Overcast
9:55 AM 62.6 °F 62.6 °F 100% 30.09 in 4.0 mi Calm Calm - N/A   Overcast
10:15 AM 62.6 °F 62.6 °F 100% 30.09 in 5.0 mi Calm Calm - N/A   Overcast
10:35 AM 64.4 °F 64.4 °F 100% 30.08 in 5.0 mi Calm Calm - N/A   Overcast
11:15 AM 66.2 °F 66.2 °F 100% 30.08 in 7.0 mi Calm Calm - N/A   Overcast
11:35 AM 66.2 °F 66.2 °F 100% 30.07 in 7.0 mi Calm Calm - N/A   Overcast
11:55 AM 68.0 °F 66.2 °F 94% 30.06 in 8.0 mi Calm Calm - N/A   Overcast
12:15 PM 68.0 °F 64.4 °F 88% 30.05 in 8.0 mi Calm Calm - N/A   Overcast
12:35 PM 68.0 °F 64.4 °F 88% 30.04 in 8.0 mi Calm Calm - N/A   Overcast
12:55 PM 68.0 °F 64.4 °F 88% 30.03 in 9.0 mi Calm Calm - N/A   Overcast
1:15 PM 64.4 °F 62.6 °F 94% 30.01 in 10.0 mi NNE 9.2 mph - N/A   Overcast
1:35 PM 62.6 °F 62.6 °F 100% 30.00 in 10.0 mi North 10.4 mph - N/A   Overcast
1:55 PM 62.6 °F 60.8 °F 94% 30.00 in 10.0 mi North 8.1 mph - N/A   Overcast
2:15 PM 60.8 °F 59.0 °F 94% 29.99 in 8.0 mi North 13.8 mph - N/A   Overcast
2:35 PM 59.0 °F 57.2 °F 94% 29.99 in 5.0 mi North 13.8 mph - N/A   Overcast
2:55 PM 59.0 °F 57.2 °F 94% 29.98 in 6.0 mi North 11.5 mph - N/A   Overcast
3:15 PM 57.2 °F 57.2 °F 100% 29.98 in 4.0 mi NNE 12.7 mph - N/A   Overcast
3:35 PM 55.4 °F 55.4 °F 100% 29.98 in 2.5 mi NNE 12.7 mph - N/A   Overcast
3:55 PM 55.4 °F 55.4 °F 100% 29.97 in 2.5 mi NNE 9.2 mph - N/A   Overcast
4:15 PM 55.4 °F 55.4 °F 100% 29.98 in 3.0 mi NE 11.5 mph - N/A   Overcast
4:35 PM 55.4 °F 55.4 °F 100% 29.98 in 2.5 mi NE 8.1 mph - N/A   Overcast
4:55 PM 55.4 °F 55.4 °F 100% 29.98 in 2.0 mi NNE 9.2 mph - N/A   Overcast
5:15 PM 55.4 °F 55.4 °F 100% 30.00 in 1.5 mi NNE 11.5 mph - N/A   Overcast
5:35 PM 53.6 °F 53.6 °F 100% 29.99 in 0.8 mi NNE 10.4 mph - N/A   Overcast
5:55 PM 53.6 °F 53.6 °F 100% 29.99 in 0.5 mi NNE 10.4 mph 16.1 mph N/A Fog Fog
6:15 PM 51.8 °F 51.8 °F 100% 29.99 in 0.8 mi NNE 9.2 mph - N/A   Overcast
6:35 PM 51.8 °F 51.8 °F 100% 30.00 in 0.8 mi NNE 6.9 mph - N/A   Overcast
6:55 PM 51.8 °F 51.8 °F 100% 30.00 in 0.8 mi NNE 8.1 mph - N/A   Overcast
7:15 PM 51.8 °F 51.8 °F 100% 30.00 in 1.0 mi NE 8.1 mph - N/A   Overcast
7:35 PM 51.8 °F 51.8 °F 100% 30.00 in 0.8 mi NNE 11.5 mph - N/A   Overcast
7:55 PM 51.8 °F 51.8 °F 100% 30.02 in 0.8 mi NNE 11.5 mph 17.3 mph N/A   Overcast
8:15 PM 51.8 °F 51.8 °F 100% 30.04 in 1.2 mi NNE 8.1 mph - N/A   Overcast
8:35 PM 51.8 °F 51.8 °F 100% 30.03 in 1.5 mi NNE 12.7 mph - N/A   Overcast
8:55 PM 50.0 °F 50.0 °F 100% 30.05 in 1.5 mi NNE 11.5 mph - N/A   Overcast
9:15 PM 50.0 °F 50.0 °F 100% 30.05 in 1.0 mi NNE 12.7 mph - N/A   Overcast
9:35 PM 50.0 °F 50.0 °F 100% 30.05 in 1.0 mi NNE 10.4 mph - N/A   Overcast
9:55 PM 50.0 °F 50.0 °F 100% 30.05 in 1.2 mi NNE 9.2 mph - N/A   Overcast
10:15 PM 48.2 °F 48.2 °F 100% 30.06 in 1.8 mi NNE 9.2 mph - N/A   Overcast
10:35 PM 48.2 °F 48.2 °F 100% 30.05 in 2.0 mi NE 11.5 mph - N/A   Overcast
10:55 PM 48.2 °F 48.2 °F 100% 30.06 in 2.0 mi NNE 11.5 mph - N/A   Overcast
11:15 PM 48.2 °F 48.2 °F 100% 30.05 in 2.5 mi NNE 9.2 mph - N/A   Overcast
11:35 PM 48.2 °F 48.2 °F 100% 30.06 in 3.0 mi NNE 6.9 mph - N/A   Overcast
11:55 PM 48.2 °F 48.2 °F 100% 30.06 in 3.0 mi NE 10.4 mph - N/A   Overcast